Погода Тивяку

Погода Тивяку : погода сейчас, прогноз погоды и архив. Всё, что Вы хотите узнать о погоде Тивяку!

Хотите узнать прогноз погоды Тивяку? Тогда Вам сюда: Погода Тивяку

Поиск расширенной информации на нашем сайте:

Другие новости

Новости СМИ2

Главная страница сайта

Новости сайта

03.07.2017

Напоминаем, что на нашем специализированном сайте Метеоцентр.Азия вы можете получить высокодетализированные автоматические прогнозы погоды по пунктам России, СНГ и мира в авиационном формате (включающие направление и скорость ветра, видимость, явления погоды, количество и форму облачности, нижнюю и верхнюю границу облачности).


Погода Тивяку - сегодня

Время (UTC), дата Ветер
(°,м/с) 
Видим.   Явления Облачность Т
(°С)
Тd
(°С)
f(%) Тe
(°С)
Pmin
(гПа)
dP
(гПа)
Po
(мм)
O2
(г/м3)
Тmin Tmax R s Состояние
почвы
00 22.11.17 060 (СВ) 10 км  слаб. ливневой снег  10/10 600 м кучево-дожд. 
[Cb cap]
-11 -12.3 90 -11  1007.3  -2.5  717  302           
03 22.11.17 120 (ЮВ) 10 км  слаб. ливневой снег  10/10 600 м кучево-дожд. 
[Cb cap]
-6.3 -7.6 90 -6  1003.6  -2.6  715  296           
06 22.11.17 250 (З) 10 км  слаб. ливневой снег  10/10 600 м кучево-дожд. 
[Cb cap]
-3.8 -5.7 87 -3  1003.7  0.5  715  293           
09 22.11.17 230 (ЮЗ) 10 км  слаб. ливневой снег  10/10 600 м кучево-дожд. 
[Cb cap]
-8 -9.5 89 -10  1007.7  3.1  718  299    -3.7     
12 22.11.17 230 (ЮЗ) 10 км  слаб. ливневой снег  10/10 600 м кучево-дожд. 
[Cb cap]
-10.7 -12.4 87 -11  1008.9  0.5  718  302           
15 22.11.17 тихо ()   20000 м  слаб. ливневой снег  10/10 600 м кучево-дожд. 
[Cb cap]
-12.1 -13.6 89 -12  1010.1  0.9  719  304           
18 22.11.17 180 (Ю) 20000 м  {ливн. осадки}  10/10 600 м кучево-дожд. 
[Cb cap]
-11.4 -13.2 86 -11  1009.5  -0.4  718  303           
21 22.11.17 180 (Ю) 20000 м    6/6 600 м кучево-дожд. 
[Cb cap]
-12.7 -14.5 86 -13  1010.2  0.4  719  305  -12.7    0.8  41  равномерный
сухой снег
100% 
00 23.11.17 200 (Ю) н/о    н/о 
-11.9 -14.9 78 -14  1010.3  0.2  719  304  -13.1         
03 23.11.17 210 (ЮЗ) 20000 м    6/6 600 м кучево-дожд. 
[Cb cap]
-9.9 -15.5 64 -12  1008.9  -1  718  301           
06 23.11.17 240 (ЮЗ) 20000 м  {ливн. осадки}  6/6 600 м кучево-дожд. 
[Cb cap]
-10.8 -15.1 71 -13  1009.4  0.3  718  303           
09 23.11.17 тихо ()   20000 м    10/10 600 м кучево-дожд. 
[Cb cap]
-12.3 -15.2 79 -12  1011  1.3  719  305    -9.1       
12 23.11.17 тихо ()   20000 м    ясно 
-16.9 -18.5 87 -17  1012  719  310           
15 23.11.17 тихо ()   20000 м    3/3 600 м кучево-дожд. 
[Cb cap]
-20.5 -22.3 85 -21  1012.5  -0.3  719  315           
18 23.11.17 тихо ()   20000 м    4/4 600 м кучево-дожд. 
[Cb cap]
-19.1 -21 85 -19  1011.5  -0.3  719  313           
21 23.11.17 тихо ()   20000 м    10/3 600 м кучево-дожд., верхняя 
[Cb cap|Cs]
-18.2 -19.9 87 -18  1010.9  -0.3  718  312  -20.8      39  равномерный
сухой снег
100% 
00 24.11.17 210 (ЮЗ) 20000 м    10/4 600 м кучево-дожд., верхняя 
[Cb cap|Cs]
-17.1 -20.1 77 -17  1011.5  0.8  719  311           
03 24.11.17 230 (ЮЗ) 20000 м    8/8 600 м кучево-дожд. 
[Cb cap]
-16.5 -20.7 70 -19  1011.4  719  310           
06 24.11.17 220 (ЮЗ) 20000 м  позёмок  9/9 600 м кучево-дожд. 
[Cb cap]
-17.1 -22.1 65 -21  1012.2  0.6  719  311           
09 24.11.17 210 (ЮЗ) 20000 м    6/6 600 м кучево-дожд. 
[Cb cap]
-19.3 -23.6 69 -22  1015.5  2.7  721  314    -15.6       
12 24.11.17 210 (ЮЗ) 20000 м    8/8 600 м кучево-дожд. 
[Cb cap]
-19.8 -23.5 72 -23  1016  0.4  722  315           
15 24.11.17 160 (Ю) 20000 м    4/4 600 м кучево-дожд. 
[Cb cap]
-20.5 -24 74 -23  1016.2  722  316           
18 24.11.17 220 (ЮЗ) 20000 м    ясно 
-22.9 -26.7 71 -23  1017.4  0.7  722  319           
21 24.11.17 210 (ЮЗ) 20000 м    ясно 
-22.9 -26.7 71 -23  1017.5  722  319  -24.2      39  равномерный
сухой снег
100% 
00 25.11.17 240 (ЮЗ) 20000 м    10/4 600 м кучево-дожд., средняя 
[Cb cap|As op]
-20.5 -24.2 72 -23  1018  723  317           
Время (UTC), дата Ветер
(°,м/с) 
Видим.   Явления Облачность Т
(°С)
Тd
(°С)
f(%) Тe
(°С)
Pmin
(гПа)
dP
(гПа)
Po
(мм)
O2
(г/м3)
Тmin Tmax R s Состояние
почвы

Для получения пояснительной информации подведите курсор к названию столбца.

ПОГОДА Тивяку - архив

Всё, что Вы хотите узнать о погоде Тивяку - удобно и подробно!

Выберите нужную дату (начиная с 1 января 2015* года) и нажмите кнопку "Найти".
Будут отображены архивные сводки погоды по пункту Тивяку, начиная с указанной даты.


Отображать данные в формате CSV (для использования в таблицах Excel)


Внимание! Наш архив погоды предназначен исключительно для личного некоммерческого использования в познавательных целях. Если Вам необходимы официальные справки о состоянии погоды (для производственных, юридических, коммерческих и т.п. целей), обращайтесь в органы Росгидромета.

*Примечание: данная дата относится к архиву по метеостанциям СССР (Россия, СНГ, Балтия).
Архив по метеостанциям Зарубежной Европы и Азии (кроме Китая) хранится 10 дней, по другим регионам земного шара (Китай, Африка, Америка, Австралия, Океания) - 1 день.

Тивяку - район местоположения метеостанции


Название, широта, долгота, высота метеостанции:
Тивяку 48.6°ш. 137.1°д. 403 м над ур. моря [Российская Федерация]

Дополнительная информация

В oтличие oт бoльшинства пoгoдных сайтoв мы публикуем пoдрoбную метеoинфoрмацию в детальнoм прoфессиoнальнoм фoрмате.

Характеристики температуры и влажнoсти вoздуха измеряются на высoте 2 м в тени вдали oт зданий и деревьев.
Скoрoсть ветра измеряется на высoте 10 м (на урoвне рoста челoвека скoрoсть ветра ниже в 1.5-2 раза). Если метеoстанция нахoдится в гoрoде или в лесу, тo скoрoсть ветра занижена на 2-4 м/с пo сравнению с oткрытым местoм. Скoрoсть ветра над акватoриями крупных рек и oзёр, а также на вершинах хoлмoв на 2-5 м/с выше, чем в oбычных услoвиях.
Атмoсфернoе давление в разных тoчках местнoсти мoжет значительнo oтличаться oт давления на метеoстанции, в зависимoсти oт услoвий рельефа (при пoдъёме на 10 м давление пoнижается примернo на 1 мм рт.ст.).